Frederick, MD

6:31 AM EDT on August 19, 2017 (GMT -0400)
Frederick Municipal

Weather History for KFDK - December, 2012

Change the Weather History Date:

Wednesday, December 12, 2012

  Actual Average (KHGR) Record (KHGR)
Temperature  
Mean Temperature 37 °F -  
Max Temperature 44 °F 41 °F 67 °F (2015)
Min Temperature 30 °F 28 °F 20 °F (2011)
Degree Days  
Heating Degree Days 28    
Moisture  
Dew Point 32 °F    
Average Humidity 92    
Maximum Humidity 100    
Minimum Humidity 57    
Precipitation  
Precipitation 0.00 in - - ()
Sea Level Pressure  
Sea Level Pressure 30.38 in    
Wind  
Wind Speed 1 mph (East)    
Max Wind Speed 5 mph    
Max Gust Speed -    
Visibility 10 miles    
Events Snow    
Averages and records for this station are not official NWS values.
T = Trace of Precipitation, MM = Missing Value Source: NWS Daily Summary

Daily Weather History Graph

Daily Weather History Graph

Search for Another Location

Airport or City:

Trip Planner

Search our weather history database for the weather conditions in past years. The results will help you decide how hot, cold, wet, or windy it might be!

Date:

Astronomy

Dec. 12, 2012 Rise Set
Actual Time 7:20 AM EST 4:46 PM EST
Civil Twilight 6:50 AM EST 5:16 PM EST
Nautical Twilight 6:16 AM EST 5:50 PM EST
Astronomical Twilight 5:44 AM EST 6:22 PM EST
Moon 6:22 AM EST (12/12) 4:21 PM EST (12/12)
Length of Visible Light 10h 26m
Length of Day
9h 25m
Waning Crescent, 1% of the Moon is Illuminated
Dec 12
Waning Crescent
Dec 13
New
Dec 20
First Quarter
Dec 28
Full
Jan 4
Last Quarter

Hourly Weather History & Observations

Time (EST) Temp. Windchill Dew Point Humidity Pressure Visibility Wind Dir Wind Speed Gust Speed Precip Events Conditions
12:00 AM 32.0 °F - 32.0 °F 100% 30.25 in 10.0 mi Calm Calm - N/A   Overcast
12:20 AM 32.0 °F - 32.0 °F 100% 30.25 in 10.0 mi Calm Calm - N/A   Overcast
12:40 AM 32.0 °F - 32.0 °F 100% 30.26 in 10.0 mi Calm Calm - N/A   Mostly Cloudy
1:05 AM 32.0 °F - 32.0 °F 100% 30.26 in 10.0 mi Calm Calm - N/A   Scattered Clouds
1:25 AM 32.0 °F - 32.0 °F 100% 30.27 in 10.0 mi Calm Calm - N/A   Clear
1:45 AM 32.0 °F - 32.0 °F 100% 30.27 in 10.0 mi Calm Calm - N/A   Clear
2:05 AM 30.2 °F - 30.2 °F 100% 30.28 in 10.0 mi Calm Calm - N/A   Clear
2:30 AM 32.0 °F 28.7 °F 32.0 °F 100% 30.29 in 10.0 mi ESE 3.5 mph - N/A   Clear
2:50 AM 32.0 °F - 32.0 °F 100% 30.30 in 10.0 mi Calm Calm - N/A Snow Light Snow
3:10 AM 32.0 °F - 32.0 °F 100% 30.31 in 10.0 mi Calm Calm - N/A Snow Light Snow
3:30 AM 32.0 °F - 32.0 °F 100% 30.31 in 10.0 mi Calm Calm - N/A Snow Light Snow
3:55 AM 32.0 °F 28.7 °F 32.0 °F 100% 30.32 in 10.0 mi SSE 3.5 mph - N/A   Mostly Cloudy
4:15 AM 32.0 °F 28.7 °F 32.0 °F 100% 30.32 in 10.0 mi South 3.5 mph - N/A Snow Light Snow
4:35 AM 32.0 °F - 32.0 °F 100% 30.33 in 10.0 mi Calm Calm - N/A Snow Light Snow
4:55 AM 32.0 °F - 32.0 °F 100% 30.34 in 10.0 mi Calm Calm - N/A Snow Light Snow
5:20 AM 32.0 °F - 32.0 °F 100% 30.35 in 10.0 mi Calm Calm - N/A   Overcast
5:40 AM 32.0 °F - 32.0 °F 100% 30.35 in 10.0 mi Calm Calm - N/A   Overcast
5:50 AM 32.0 °F - 32.0 °F 100% 30.35 in 10.0 mi Calm Calm - N/A   Overcast
6:45 AM 33.8 °F - 33.8 °F 100% 30.38 in 10.0 mi Calm Calm - N/A   Overcast
7:50 AM 32.0 °F - 32.0 °F 100% 30.40 in 10.0 mi Calm Calm - N/A   Scattered Clouds
8:55 AM 33.8 °F - 33.8 °F 100% 30.42 in 10.0 mi Calm Calm - N/A   Clear
9:50 AM 41.0 °F - 33.8 °F 76% 30.45 in 10.0 mi Calm Calm - N/A   Clear
10:50 AM 44.6 °F 43.1 °F 33.8 °F 66% 30.44 in 10.0 mi NNE 3.5 mph - N/A   Clear
11:50 AM 44.6 °F 43.1 °F 32.0 °F 61% 30.43 in 10.0 mi East 3.5 mph - N/A   Clear
12:50 PM 44.6 °F 42.2 °F 30.2 °F 57% 30.41 in 10.0 mi Variable 4.6 mph - N/A   Scattered Clouds
1:50 PM 44.6 °F 43.1 °F 32.0 °F 61% 30.41 in 10.0 mi ENE 3.5 mph - N/A   Clear
2:50 PM 42.8 °F 40.1 °F 30.2 °F 61% 30.41 in 10.0 mi Variable 4.6 mph - N/A   Clear
3:45 PM 41.0 °F 39.0 °F 30.2 °F 65% 30.43 in 10.0 mi Variable 3.5 mph - N/A   Clear
4:46 PM 37.4 °F - 30.2 °F 75% 30.43 in 10.0 mi Calm Calm - N/A   Clear
5:45 PM 35.6 °F 32.8 °F 30.2 °F 81% 30.41 in 10.0 mi Variable 3.5 mph - N/A   Clear
6:52 PM 35.6 °F - 30.2 °F 81% 30.43 in 10.0 mi Calm Calm - N/A   Clear
7:55 PM 32.0 °F - 30.2 °F 93% 30.46 in 10.0 mi Calm Calm - N/A   Clear
8:10 PM 32.0 °F - 32.0 °F 100% 30.46 in 10.0 mi Calm Calm - N/A   Clear
8:30 PM 32.0 °F - 32.0 °F 100% 30.45 in 10.0 mi Calm Calm - N/A   Clear
8:55 PM 32.0 °F - 32.0 °F 100% 30.45 in 10.0 mi Calm Calm - N/A   Clear
9:15 PM 32.0 °F - 32.0 °F 100% 30.46 in 10.0 mi Calm Calm - N/A   Clear
9:35 PM 32.0 °F - 30.2 °F 93% 30.47 in 10.0 mi Calm Calm - N/A Snow Light Snow
9:55 PM 32.0 °F - 30.2 °F 93% 30.47 in 10.0 mi Calm Calm - N/A   Clear
10:20 PM 32.0 °F - 30.2 °F 93% 30.48 in 7.0 mi Calm Calm - N/A Snow Light Snow
10:40 PM 32.0 °F - 32.0 °F 100% 30.47 in 7.0 mi Calm Calm - N/A Snow Light Snow
11:00 PM 32.0 °F - 32.0 °F 100% 30.47 in 7.0 mi Calm Calm - N/A Snow Light Snow
11:20 PM 30.2 °F 26.7 °F 30.2 °F 100% 30.45 in 7.0 mi NE 3.5 mph - N/A Snow Light Snow
11:45 PM 30.2 °F - 30.2 °F 100% 30.45 in 10.0 mi Calm Calm - N/A Snow Light Snow